GFSSW_925_spd_366.txt.gz
Wind_Speed
19 20 21 22 23 23 23 22 21 21 20 19 18 18 17 14 15 17 16 7 11 14 14 15 17 17 4 3 2 1 5 7 4 1 5 5 4 4 4 4 1 1 2 3 23
20 21 22 23 23 24 24 23 23 22 21 19 18 17 16 7 14 19 10 10 12 15 17 15 9 9 4 4 3 4 6 2 5 3 4 7 6 8 7 6 2 1 2 9 27
20 21 22 23 24 24 24 24 24 23 21 19 16 15 15 5 4 4 12 10 12 12 11 8 8 4 3 3 4 5 15 5 3 2 5 5 8 5 6 4 2 3 5 15 20
22 22 23 24 24 25 23 24 24 23 20 15 11 13 8 3 3 3 11 9 11 13 10 5 4 3 1 3 4 5 5 11 11 13 7 8 8 6 6 8 6 9 12 17 16
22 23 24 25 26 25 25 24 24 20 14 9 10 11 4 6 1 7 11 12 14 10 6 1 0 2 3 3 3 6 9 10 10 11 14 12 14 9 13 10 10 8 12 18 12
23 24 26 27 28 25 27 27 23 11 13 7 9 7 4 6 7 10 13 15 15 9 4 4 4 5 5 4 4 4 5 12 12 15 10 14 16 7 3 3 4 4 13 14 13
23 25 28 28 29 26 29 32 15 7 12 7 6 6 7 3 12 17 17 16 17 13 3 7 5 4 3 4 5 5 10 10 15 9 11 10 17 20 10 6 6 8 7 8 11
25 26 28 28 29 28 32 31 9 7 9 6 6 4 3 10 19 16 17 23 18 20 13 13 9 4 4 4 4 4 4 10 9 6 8 11 20 20 10 9 9 9 7 7 11
26 27 28 28 28 30 33 18 7 6 7 8 4 4 4 12 25 17 15 17 25 9 5 5 5 3 1 4 6 4 9 6 9 6 9 11 15 18 11 11 11 9 11 7 10
26 27 27 26 23 30 32 9 7 7 4 4 6 3 7 7 21 17 19 25 4 6 5 6 4 0 2 3 7 4 6 5 7 4 4 8 15 14 7 11 12 12 12 10 10
25 26 25 23 16 25 31 5 9 6 13 3 3 1 6 21 5 16 21 16 7 7 4 3 2 5 9 10 12 12 12 15 15 13 10 14 15 16 11 8 10 11 13 9 11
27 27 24 21 9 19 28 7 2 2 3 2 3 5 9 6 5 10 20 8 6 6 9 2 7 7 7 9 11 13 14 13 8 10 2 10 16 9 5 5 7 11 12 13 11
27 27 24 21 5 14 19 9 2 2 1 4 4 3 5 6 4 7 9 6 3 4 9 6 7 9 9 13 13 10 10 13 9 3 10 11 8 5 3 3 2 5 10 17 15
27 26 22 16 2 10 4 12 0 2 4 9 6 4 8 3 1 8 8 2 5 4 6 7 6 6 14 15 9 4 6 12 12 7 3 6 4 2 1 7 2 3 9 11 13
27 25 18 12 6 3 11 7 3 0 4 11 8 5 11 5 7 8 12 6 1 5 3 5 5 9 11 8 2 6 6 5 6 6 3 6 4 3 4 4 4 4 8 7 6
26 23 12 7 5 10 12 3 2 5 3 6 6 7 8 5 7 6 7 6 3 4 3 7 6 3 3 11 6 10 5 2 2 2 3 4 3 3 4 4 5 7 9 8 7
25 19 7 9 9 17 2 2 5 6 3 7 5 8 5 5 7 9 7 9 11 9 7 8 5 4 2 7 4 5 3 3 4 4 1 6 5 3 6 7 4 4 8 9 7
24 14 5 6 17 9 1 5 8 1 3 3 4 7 5 9 5 8 7 6 3 4 5 6 8 7 5 2 4 5 3 2 1 2 2 6 4 4 5 6 5 6 8 10 11
23 10 1 17 12 6 5 6 5 5 3 6 6 4 4 3 1 7 4 4 3 5 4 4 6 6 3 2 2 6 3 2 2 1 3 1 3 2 5 6 7 7 7 9 10
17 7 3 17 8 3 5 3 2 3 0 2 2 5 4 5 7 6 3 4 7 4 2 4 7 3 7 4 1 2 5 3 3 3 3 2 2 2 6 8 3 5 7 7 7
7 4 5 13 4 6 4 3 2 1 1 2 1 3 3 3 1 3 3 4 4 7 3 3 1 8 4 6 5 6 4 4 0 2 1 1 2 1 3 5 5 4 5 5 5
2 3 8 11 4 1 2 4 1 0 1 0 1 4 2 2 2 2 3 5 6 3 9 2 3 4 5 4 3 3 5 4 2 5 2 0 2 4 4 3 1 3 4 3 4
2 2 6 5 2 2 2 1 0 0 1 1 2 2 1 2 3 3 2 2 5 4 7 4 2 5 9 5 4 5 7 3 2 2 2 3 3 3 3 4 5 4 4 4 4
3 2 4 5 0 5 3 1 1 0 1 1 2 1 3 3 2 4 4 3 7 2 12 2 1 3 4 5 4 6 8 9 1 3 1 1 1 6 7 5 3 3 4 4 3
2 1 3 2 3 3 2 2 2 1 0 0 2 2 3 3 4 3 3 5 3 6 5 3 1 2 7 9 4 4 5 7 5 1 3 2 2 3 3 1 1 2 1 1 2
4 3 1 1 3 4 2 4 6 2 4 2 3 3 5 4 6 5 4 1 3 5 3 4 2 3 4 5 5 3 6 6 2 3 3 1 3 2 1 4 1 2 3 2 3
4 4 3 2 2 4 4 5 6 5 2 5 5 2 2 7 5 9 7 6 6 5 2 3 2 5 4 6 6 4 2 3 3 1 1 2 2 2 3 4 2 1 2 1 1

GFSSW_925_spd_369.txt.gz
Wind_Speed
20 20 21 21 21 21 20 20 20 19 18 16 14 13 11 17 18 23 19 7 12 12 16 16 20 13 5 3 3 2 2 5 3 3 2 3 6 2 4 2 2 3 2 3 13
20 21 22 22 22 22 21 21 21 20 19 16 12 10 7 11 19 23 12 11 12 14 17 14 7 9 3 3 2 3 4 5 5 2 2 8 4 9 7 6 3 2 4 5 17
20 21 22 23 23 22 22 22 23 22 18 13 10 10 7 6 5 4 11 11 12 14 11 6 7 3 3 2 2 1 4 4 4 11 12 10 11 10 6 6 1 1 10 4 12
21 22 23 24 24 22 23 23 24 17 15 10 11 9 7 4 4 5 13 12 15 11 7 4 4 2 1 2 2 3 7 5 5 8 11 12 9 14 13 12 13 11 13 10 13
22 23 24 24 25 23 26 27 21 12 14 10 10 7 4 6 4 11 16 16 14 14 5 1 3 1 1 2 2 5 6 8 7 7 9 12 16 17 21 13 18 14 12 12 16
23 24 25 25 26 25 28 28 13 8 10 10 10 13 6 7 10 14 14 21 17 11 4 2 4 4 3 3 4 3 6 12 9 14 12 15 19 9 16 5 14 15 15 11 17
24 25 27 26 27 26 29 21 8 8 8 7 7 9 11 4 15 12 15 21 18 13 4 6 5 4 3 3 3 4 8 11 12 10 8 5 14 18 16 18 18 17 16 13 13
25 27 28 27 26 27 30 12 8 7 10 7 6 4 4 7 18 17 20 30 23 12 7 10 5 3 3 2 3 5 4 7 2 3 5 8 17 15 14 18 19 18 13 13 9
27 28 29 27 25 28 29 6 8 4 5 10 4 5 3 11 24 17 16 22 16 11 4 2 3 1 1 3 5 2 6 5 11 4 6 9 12 13 9 13 17 14 12 11 10
29 29 28 26 22 29 27 5 11 14 4 3 9 4 6 7 18 16 26 18 4 7 4 6 4 1 0 1 5 5 8 8 13 4 4 12 19 17 10 11 19 16 13 11 12
28 28 27 24 18 25 27 2 8 6 14 4 1 1 5 18 3 20 25 7 5 6 4 4 2 4 5 6 13 15 14 19 21 16 14 13 17 18 10 13 12 13 12 11 11
27 28 26 23 11 19 25 8 2 2 1 1 2 4 5 4 4 14 24 6 5 4 6 3 2 4 6 11 16 15 16 18 13 13 7 11 17 13 10 11 11 11 10 12 12
27 27 25 20 6 13 22 9 2 1 2 4 2 3 5 6 4 7 10 6 4 4 4 3 5 8 6 14 15 12 13 12 12 7 13 15 9 4 2 3 7 3 5 12 14
26 26 23 16 3 10 4 12 1 2 4 10 6 5 7 0 1 6 8 2 4 5 7 5 3 4 10 12 9 7 3 11 16 9 4 5 3 5 3 9 9 6 8 13 10
26 25 19 12 5 3 11 5 3 1 5 10 7 6 10 6 7 8 13 6 2 6 2 4 5 10 7 7 9 7 10 14 12 12 4 3 0 4 3 7 11 10 11 10 8
25 24 13 8 5 12 9 4 2 5 3 5 5 8 7 6 7 7 8 7 2 4 2 6 5 3 4 12 11 10 9 5 4 2 3 5 1 5 5 5 6 8 10 13 8
24 22 9 8 10 14 1 1 5 6 3 8 5 6 4 5 7 9 7 9 9 9 7 9 4 4 1 9 3 11 4 4 4 4 2 7 7 3 8 9 4 6 10 12 10
23 16 5 7 15 8 1 5 9 1 3 4 5 6 5 9 4 8 5 6 4 4 4 7 9 7 6 2 5 7 4 2 4 4 4 7 5 4 4 4 9 9 8 11 12
21 10 2 15 11 6 4 6 4 5 3 5 5 5 5 4 2 7 5 3 2 4 5 4 6 6 4 3 2 7 4 4 4 1 2 2 1 2 12 14 12 11 11 11 10
15 6 3 17 9 2 5 3 2 3 2 2 2 4 4 6 7 7 4 3 5 3 2 3 7 3 7 4 2 2 5 3 3 4 3 2 4 4 11 11 11 10 10 8 9
6 3 4 14 4 5 4 3 3 2 2 2 3 1 1 3 2 4 4 5 2 6 1 2 1 7 4 4 4 5 4 4 1 2 2 2 2 4 6 6 6 6 6 7 7
1 2 6 9 4 1 2 4 3 2 2 2 2 2 2 0 2 2 4 5 3 2 6 1 3 5 5 6 4 2 5 4 2 5 2 1 2 4 4 5 4 5 5 5 6
2 2 5 3 3 1 2 1 2 3 3 4 4 4 2 1 2 3 3 4 3 3 6 3 2 5 8 5 4 4 6 5 3 0 2 2 2 2 3 5 6 5 5 5 5
2 2 3 5 1 6 3 2 2 1 2 2 3 2 2 1 2 3 3 3 4 2 9 1 1 4 4 5 3 6 11 7 1 2 2 1 3 4 6 4 3 4 5 5 4
2 1 1 2 2 3 3 3 3 4 1 1 1 3 4 0 3 3 3 4 2 5 4 3 2 1 9 12 5 7 4 7 5 1 2 3 1 4 3 2 1 1 2 3 5
4 3 0 2 2 4 2 5 6 1 5 3 3 5 5 5 7 4 1 2 4 2 3 4 2 4 5 3 4 4 2 5 2 2 1 1 3 2 3 2 1 3 2 1 2
4 3 3 4 2 3 4 5 6 6 1 4 4 3 2 9 7 8 6 5 5 3 1 2 2 5 5 6 6 3 2 1 3 2 2 2 1 4 2 3 2 3 3 2 1

GFSSW_925_spd_375.txt.gz
Wind_Speed
19 19 20 20 20 20 20 20 20 17 13 9 6 4 8 11 11 14 17 14 18 18 18 16 13 12 3 2 4 3 6 11 14 16 13 2 6 7 8 13 12 6 9 9 13
20 20 21 21 20 20 21 22 20 16 13 9 8 2 8 5 6 21 14 16 16 16 16 17 15 14 2 2 2 6 9 10 7 9 9 12 7 14 12 13 9 11 8 7 16
21 22 22 22 22 22 23 23 19 12 11 9 7 4 11 3 1 10 18 18 16 14 13 11 12 7 5 3 1 3 9 12 11 11 12 15 18 17 18 19 17 15 9 12 19
23 24 24 23 21 23 23 22 14 9 10 9 7 7 6 4 3 12 16 17 18 15 12 11 9 8 5 4 2 8 10 9 11 11 14 16 17 18 19 21 20 22 17 18 17
24 25 25 23 22 24 25 19 10 8 7 7 3 3 3 6 7 13 16 18 18 15 10 8 8 7 5 8 9 12 13 10 11 13 14 17 20 21 22 20 21 23 24 20 18
24 25 27 24 22 25 26 13 9 8 7 12 11 6 2 8 8 14 18 23 17 13 9 7 6 7 8 7 7 10 12 16 18 19 18 19 22 20 20 19 20 20 23 24 22
25 25 27 25 21 26 24 9 7 7 5 4 7 4 16 8 8 17 19 20 12 9 7 6 6 6 6 9 5 10 16 17 18 12 11 11 19 23 24 19 18 21 21 22 23
25 27 27 26 21 26 21 7 3 6 5 3 4 3 5 6 11 19 24 20 11 8 4 4 4 6 5 8 12 14 14 9 2 8 12 6 22 18 14 13 17 18 19 19 22
27 28 28 26 19 25 15 9 6 1 5 7 3 4 4 6 20 15 22 19 11 5 2 1 3 3 3 7 10 6 11 19 20 15 11 13 22 17 16 18 18 18 18 18 20
28 30 28 25 18 24 10 1 8 9 3 2 10 3 6 13 13 12 24 12 6 5 6 2 3 5 5 6 11 14 19 20 21 17 16 18 27 27 23 22 23 23 22 20 18
27 30 28 26 16 22 14 4 3 2 17 7 6 5 8 18 4 21 30 12 7 6 7 2 6 6 10 10 12 15 16 19 24 19 17 19 24 25 22 21 21 20 20 19 18
26 30 27 24 12 21 13 6 4 3 6 7 4 6 6 16 9 21 30 10 8 9 10 5 1 6 10 10 12 14 17 19 19 13 18 20 25 25 20 20 21 22 17 19 18
25 29 28 21 7 11 17 9 3 1 2 4 4 5 7 9 8 17 20 12 9 11 10 6 7 9 12 13 13 16 17 17 19 20 22 15 16 5 8 16 16 14 16 16 17
25 29 27 15 3 8 6 9 2 1 3 7 6 5 7 5 2 13 18 6 6 9 10 4 7 10 14 12 14 13 10 17 20 13 8 4 6 4 12 10 19 20 16 13 12
23 27 23 13 5 5 8 4 1 3 1 7 4 5 6 8 10 16 14 5 7 13 5 8 9 13 11 6 14 10 21 21 19 14 11 2 5 7 13 14 19 14 10 11 10
21 24 18 7 4 7 4 1 2 1 4 3 4 9 8 9 5 12 10 14 1 7 7 9 8 4 4 15 16 13 19 22 6 4 4 7 4 11 11 18 15 14 14 12 12
19 22 11 6 7 9 1 3 1 4 2 7 5 9 8 10 6 11 5 12 11 10 12 15 2 5 8 16 10 19 16 5 4 2 4 6 4 8 12 16 13 16 14 13 14
19 20 10 5 12 7 3 2 6 2 3 3 5 9 5 10 5 12 9 9 13 12 9 8 3 11 14 10 9 14 8 6 7 8 10 7 7 5 7 11 15 14 12 15 15
18 8 4 7 14 5 4 5 3 2 3 7 6 4 2 4 6 9 5 7 8 11 7 7 5 12 10 11 8 9 11 10 6 11 5 3 4 6 16 17 10 14 17 16 15
9 6 2 13 12 4 3 3 2 2 2 2 4 4 5 9 8 8 7 3 6 6 4 5 8 8 12 8 3 8 10 4 4 6 7 4 4 8 18 18 15 16 15 15 15
5 4 2 13 5 2 3 3 2 3 1 2 2 3 4 3 3 4 4 1 4 8 2 6 2 8 11 5 9 7 7 5 4 4 4 6 4 7 10 11 12 11 11 12 12
2 3 5 8 1 2 2 2 2 4 2 2 3 2 2 2 3 3 3 3 2 8 5 3 4 6 7 8 2 3 10 7 4 7 5 4 4 9 6 7 9 10 10 9 9
1 2 5 4 2 1 2 2 2 4 3 2 3 4 1 2 3 4 3 1 2 5 5 6 1 7 1 3 3 4 9 13 10 4 4 5 4 11 11 11 10 10 9 8 8
1 2 1 4 1 1 2 2 3 2 2 3 3 3 3 4 5 4 5 1 3 2 3 3 3 6 6 9 11 10 16 13 8 4 8 4 9 13 12 9 10 10 8 7 7
1 2 1 2 2 3 1 3 4 3 4 5 3 9 5 2 2 4 4 7 1 1 4 3 4 5 15 19 16 14 12 9 6 6 4 6 7 9 10 8 6 7 7 7 8
2 2 1 2 2 3 2 6 7 4 6 5 6 2 8 5 3 3 2 3 4 1 1 1 3 9 5 2 3 10 14 8 6 6 7 5 3 5 7 5 7 4 6 6 7
2 0 1 4 3 3 4 4 7 7 6 3 7 4 7 12 10 9 7 8 8 4 2 2 5 6 4 4 7 4 1 2 4 4 4 5 5 6 7 8 8 5 5 7 7

GFSSW_925_spd_378.txt.gz
Wind_Speed
22 22 21 21 21 21 21 21 20 16 14 10 7 2 3 5 15 22 19 18 18 20 22 18 18 18 4 3 2 3 3 4 7 6 7 9 8 8 9 5 7 8 5 8 15
23 23 22 22 21 22 22 22 18 13 13 11 9 3 3 6 5 23 15 18 20 21 21 19 14 15 3 3 2 2 3 4 8 7 8 12 10 11 9 12 12 10 10 12 14
23 23 23 22 21 23 24 21 14 11 11 11 9 4 7 6 4 10 19 20 22 20 18 15 14 8 5 1 4 6 3 10 12 10 9 12 13 9 11 12 11 14 12 8 8
24 24 24 23 22 24 24 17 12 10 10 8 10 8 3 4 3 14 20 21 23 18 16 13 9 6 5 4 3 3 9 8 8 9 8 9 10 11 11 14 12 17 17 14 11
25 27 26 24 21 24 24 12 10 9 8 8 6 4 5 6 6 14 20 24 19 16 12 6 8 6 7 9 8 9 8 10 10 12 12 13 12 13 15 13 14 14 16 14 10
26 28 27 24 20 25 22 11 9 6 7 9 9 11 3 6 9 15 19 25 18 15 12 7 5 7 5 6 5 9 10 13 12 14 14 16 15 8 15 12 14 13 13 13 10
26 28 27 25 20 25 19 9 6 7 3 5 8 6 13 5 11 14 19 24 14 11 9 9 10 5 8 7 6 8 12 13 15 9 3 7 11 12 16 17 17 14 10 9 10
27 29 28 26 20 25 13 10 5 5 8 5 5 7 4 2 16 17 22 24 14 8 6 6 4 5 3 7 6 9 9 5 3 6 5 3 23 12 14 9 11 12 11 10 9
28 30 29 26 18 22 7 11 12 4 6 8 5 7 3 7 20 14 23 21 13 4 2 2 3 3 1 6 5 4 5 13 12 15 14 10 17 7 10 13 17 15 13 12 11
27 30 30 26 18 21 11 3 7 13 4 5 12 2 5 10 15 16 28 21 4 9 8 5 3 4 4 5 5 9 11 12 12 9 18 20 18 15 14 18 15 11 11 12 12
27 30 30 24 15 21 15 3 2 2 15 6 5 4 7 18 9 23 31 19 9 6 4 2 2 3 8 7 8 8 13 16 17 20 16 12 18 18 15 13 10 13 14 10 10
26 30 30 21 12 20 17 6 5 3 4 6 2 7 6 13 7 20 29 10 7 7 10 1 1 8 8 11 10 10 11 16 15 9 14 14 21 20 10 10 10 16 16 16 8
25 29 29 16 9 12 17 10 4 4 3 3 3 4 5 8 7 14 17 10 7 9 11 7 5 9 10 12 10 11 15 13 15 14 14 7 5 10 11 13 18 18 17 17 16
24 27 28 14 4 14 6 10 3 2 1 6 6 5 6 4 2 13 15 4 6 8 9 3 8 9 12 10 11 11 10 18 19 11 2 5 4 13 10 13 17 18 18 16 16
22 25 24 15 7 5 9 7 2 2 2 5 3 5 1 7 6 12 15 6 5 12 4 6 7 9 7 3 10 10 17 20 21 15 3 2 4 4 8 16 20 18 19 16 15
19 22 20 8 3 9 8 2 2 1 3 3 3 8 8 10 4 9 7 8 5 5 5 8 9 1 4 9 12 15 12 22 1 3 1 5 2 5 8 14 16 16 17 16 14
18 20 14 6 4 10 3 3 1 5 1 5 4 6 7 6 5 10 4 9 6 8 7 10 3 3 7 10 8 18 12 4 5 3 1 7 5 4 9 12 12 14 16 15 12
18 19 9 3 11 7 2 1 7 1 3 3 4 9 3 7 5 7 7 5 9 7 4 5 7 10 10 7 6 10 6 4 5 3 5 4 5 2 6 11 12 15 15 15 15
14 6 4 6 13 3 1 5 1 2 2 6 6 4 2 4 5 7 4 5 3 5 4 6 5 8 7 7 6 7 8 6 4 8 4 4 2 3 12 11 12 15 14 16 16
9 4 2 10 10 1 3 3 2 3 2 3 4 4 4 6 6 6 6 2 4 3 3 4 7 7 7 5 4 6 9 4 3 5 5 3 4 7 19 17 13 14 15 14 13
6 3 1 10 4 3 3 3 2 3 1 2 2 3 4 3 2 3 2 1 5 5 0 5 2 8 6 3 4 5 5 5 3 3 3 3 2 4 7 10 11 11 12 12 12
4 3 5 5 2 2 2 3 1 4 2 1 3 2 1 3 1 2 2 3 4 5 3 3 3 5 5 6 3 2 5 5 2 6 4 3 2 4 5 5 8 9 10 10 10
3 3 5 4 2 1 3 3 1 4 4 3 3 3 3 1 1 4 3 6 4 3 3 4 2 5 6 4 1 3 5 8 7 3 2 3 2 7 9 9 9 10 9 8 10
2 3 2 4 2 1 2 2 3 0 1 2 1 0 1 3 5 2 4 2 4 3 0 3 3 5 4 5 5 6 12 6 5 2 5 2 5 9 8 7 7 8 9 8 9
1 2 1 2 1 2 2 1 3 3 3 5 3 6 4 2 2 3 2 4 3 5 2 3 4 4 11 16 13 14 9 4 3 5 3 4 2 5 5 4 1 2 6 8 9
2 2 2 2 1 3 1 4 5 2 6 4 4 3 7 5 5 4 4 3 3 3 2 1 4 6 5 6 2 6 10 9 4 4 7 6 2 4 2 5 6 6 6 7 7
2 1 1 1 1 1 4 3 4 7 3 2 6 3 4 6 5 4 1 4 5 2 0 1 3 5 5 7 5 3 5 2 3 4 2 2 2 4 5 5 3 3 3 4 6

GFSSW_925_spd_381.txt.gz
Wind_Speed
22 23 22 22 21 23 22 20 15 14 12 10 4 2 4 9 12 33 20 17 19 22 24 24 22 27 4 2 4 4 3 2 4 6 5 7 8 6 5 7 6 7 6 6 15
24 24 23 22 21 22 23 17 14 13 13 12 8 2 2 6 3 24 19 21 23 22 24 19 9 18 5 3 4 3 2 2 2 2 4 3 6 6 6 7 7 9 8 18 25
24 24 23 22 21 23 21 14 13 12 11 12 12 4 3 8 4 7 23 24 25 20 17 16 13 6 4 2 3 4 2 6 2 6 7 8 2 4 6 3 1 9 17 11 10
25 25 23 22 21 23 20 13 12 11 10 8 9 8 6 6 3 13 23 26 21 17 17 10 7 5 5 5 5 4 4 6 5 8 7 6 8 7 5 6 8 10 10 10 4
27 26 25 23 21 24 18 11 10 9 9 11 12 13 3 6 3 15 22 26 19 19 20 7 7 5 4 5 8 2 5 8 10 11 10 8 7 7 9 10 10 10 11 10 9
30 30 27 23 22 24 15 9 9 5 6 9 12 11 5 7 13 16 20 27 18 15 15 13 5 4 2 3 3 5 6 8 8 10 8 11 10 3 4 7 10 13 13 10 10
29 32 29 24 22 22 13 10 6 8 6 5 8 7 9 3 12 18 18 23 15 8 4 8 7 5 5 6 5 7 6 8 8 4 4 5 5 6 9 9 6 8 8 8 8
28 32 30 24 22 21 9 13 8 6 8 8 8 5 3 4 13 18 23 22 13 5 4 4 4 1 1 3 7 3 2 5 7 8 5 3 12 8 9 7 9 9 8 8 8
29 32 31 24 20 23 11 6 12 5 5 11 7 1 3 5 19 18 30 19 13 1 3 3 2 1 5 2 5 6 3 9 9 9 6 5 18 8 12 10 14 13 10 11 14
29 33 32 23 22 25 11 2 7 22 5 3 13 5 6 7 19 21 35 14 5 4 2 1 1 3 5 6 2 6 6 7 7 6 16 15 19 10 9 7 7 10 12 12 13
27 31 32 21 21 24 16 3 6 6 15 5 1 3 4 19 5 24 33 13 8 4 5 1 6 4 5 4 6 7 4 7 13 16 10 6 15 17 11 11 14 14 15 16 17
25 28 30 21 14 20 21 8 3 1 3 5 3 4 2 11 5 18 30 7 6 5 9 6 4 6 7 8 7 6 9 12 10 3 12 11 10 8 9 10 12 13 15 16 18
24 26 29 21 9 11 20 9 2 1 3 1 1 2 6 4 4 9 10 6 5 8 6 2 3 5 7 7 8 6 7 6 9 12 11 5 1 4 9 7 14 15 14 14 17
24 25 28 18 3 14 6 10 1 1 4 8 6 4 5 2 2 5 11 2 6 6 7 2 4 5 7 3 3 8 5 16 18 4 3 3 4 5 12 9 15 15 16 18 17
20 23 26 14 6 4 10 4 2 1 3 4 4 6 5 6 4 9 16 6 4 5 1 5 5 7 4 5 5 9 17 18 14 5 1 1 3 4 9 15 21 19 19 18 17
19 21 24 9 3 10 8 2 1 5 3 4 4 6 5 5 3 6 7 8 3 5 3 5 6 1 5 7 4 8 14 9 3 3 3 4 1 3 9 16 18 20 20 19 18
20 20 17 7 5 10 1 2 4 6 4 5 4 5 3 5 6 7 3 9 4 7 7 7 6 2 4 6 5 12 7 5 6 5 2 4 3 0 9 11 11 17 17 16 16
17 16 10 7 11 5 2 5 7 2 2 2 3 6 2 6 4 7 4 5 8 5 2 4 8 7 8 2 4 5 3 2 4 2 3 5 6 2 6 7 10 13 14 15 17
18 9 6 6 13 3 4 6 6 5 3 5 5 3 2 3 3 6 3 2 1 1 4 4 5 6 4 5 3 7 4 5 3 3 2 1 3 3 10 10 13 15 16 16 15
13 7 3 7 8 1 5 4 4 2 0 0 1 3 3 5 3 5 2 3 2 2 3 1 6 4 7 6 5 3 5 5 3 5 5 2 2 6 19 18 15 16 15 16 15
5 4 1 9 4 4 3 3 3 3 2 1 2 1 2 1 3 1 4 3 1 2 2 0 2 7 3 2 2 4 4 4 0 2 3 4 3 5 10 10 12 12 12 12 12
3 2 6 7 4 1 2 1 2 3 1 1 1 1 1 2 1 1 3 6 3 1 1 2 2 5 6 11 7 3 3 3 3 6 3 3 3 1 5 5 8 10 11 11 9
1 2 3 3 2 1 1 2 1 2 3 3 3 2 1 2 2 3 3 4 6 2 4 2 2 5 9 6 6 3 3 3 3 2 2 1 4 3 4 5 7 9 9 10 11
1 2 3 4 1 3 2 2 2 1 1 2 1 2 1 2 4 2 2 3 6 3 5 1 2 7 5 7 1 5 9 6 3 2 2 3 5 6 8 8 8 8 8 8 9
2 3 3 1 2 2 3 1 2 3 1 3 2 5 5 1 3 3 2 3 3 4 3 4 3 4 8 17 14 16 14 6 5 6 2 4 3 6 6 2 5 4 6 7 8
4 3 1 2 1 4 1 4 4 1 6 4 4 3 7 5 7 6 4 3 5 1 2 3 2 3 5 5 1 8 9 7 5 5 6 6 5 3 2 3 3 5 4 6 7
1 2 3 3 3 4 5 5 5 6 2 4 6 2 4 8 5 4 5 4 5 6 3 2 1 4 5 7 7 4 5 4 2 4 3 4 3 3 3 3 1 3 4 4 4

GFSSW_925_spd_384.txt.gz
Wind_Speed
22 22 21 20 21 22 19 15 14 14 12 8 2 3 6 11 22 32 26 22 24 22 21 21 21 22 6 4 6 3 4 1 4 5 5 7 7 7 6 4 5 5 4 5 17
24 23 22 21 22 22 18 14 13 12 12 11 5 1 2 6 7 26 24 26 23 21 17 16 9 13 4 3 4 4 3 1 3 3 4 4 4 5 7 9 6 3 5 17 20
26 25 24 21 23 23 17 13 12 10 10 12 11 6 6 4 5 7 25 27 21 20 15 10 11 3 6 4 5 3 3 2 0 3 5 8 4 4 2 3 3 10 16 8 9
29 27 25 21 23 23 15 11 10 10 11 13 12 6 8 4 3 11 23 28 17 16 18 12 7 4 4 3 4 3 4 3 5 3 3 4 5 6 4 7 7 9 11 10 8
29 28 25 20 24 22 14 10 8 7 8 12 14 8 3 7 2 16 20 27 14 16 19 5 8 4 3 3 6 2 4 6 8 10 7 4 6 5 6 11 9 10 9 9 9
29 30 25 20 23 20 14 10 7 5 5 8 9 13 7 7 8 17 22 21 13 12 11 9 2 2 2 2 2 3 5 8 7 7 5 5 4 3 6 7 8 8 10 9 8
30 34 28 20 24 20 11 12 6 7 6 7 7 5 10 3 10 17 30 12 10 6 3 6 4 5 1 4 3 4 5 7 2 6 5 8 3 4 8 9 10 9 9 9 7
30 33 30 19 23 24 11 9 7 5 7 8 6 5 3 2 13 21 31 12 7 3 6 6 5 2 3 5 7 6 5 5 7 8 5 4 7 8 10 11 13 11 10 10 10
28 31 29 20 25 24 13 5 14 1 5 9 5 5 3 9 17 22 28 10 9 3 4 4 3 3 5 3 5 6 3 9 8 5 3 4 12 7 12 10 8 10 12 12 13
26 28 30 22 23 26 13 3 7 8 4 3 12 4 6 6 15 22 30 10 3 5 4 4 5 4 5 6 2 6 5 5 7 6 11 8 9 7 10 11 8 10 10 13 14
25 26 30 25 20 26 13 3 5 6 14 5 0 3 5 15 4 25 30 8 7 8 4 2 7 3 4 3 2 3 4 6 12 7 5 6 9 5 3 10 14 15 15 13 14
23 25 28 25 14 21 13 8 2 0 4 4 3 1 4 6 4 14 23 6 6 4 6 6 2 3 4 4 1 4 7 7 7 2 10 9 11 2 8 4 8 12 15 17 18
23 24 28 24 6 16 21 8 2 1 3 2 1 2 5 4 3 8 10 5 6 6 5 3 2 2 3 4 6 5 4 5 7 14 7 3 3 3 6 3 11 12 12 14 16
22 24 25 21 2 11 5 9 1 2 4 7 5 3 5 2 3 5 13 2 5 3 4 2 4 4 5 3 2 5 4 11 16 3 2 2 4 3 11 10 16 15 16 18 18
21 24 23 15 5 4 8 2 1 1 3 3 4 4 6 6 4 7 12 6 3 5 3 2 5 6 4 5 0 8 14 15 10 4 2 5 2 4 9 15 20 16 16 17 18
19 20 19 7 5 10 7 2 1 5 4 2 3 4 4 6 7 6 8 7 2 3 5 4 5 2 5 7 2 8 10 4 4 3 3 4 0 3 6 14 18 18 19 18 18
19 17 12 7 3 10 2 2 4 5 3 5 4 4 2 5 5 7 5 8 4 7 7 7 5 6 4 5 6 9 6 5 6 5 2 2 1 6 3 8 11 16 18 17 16
17 14 6 4 9 7 2 5 5 1 3 3 3 4 2 5 3 7 3 4 4 4 3 4 7 6 7 1 4 3 4 4 3 1 4 5 3 5 5 3 8 11 14 15 16
15 8 2 4 10 4 4 5 4 5 2 5 3 2 3 2 2 3 3 1 1 1 4 4 5 5 3 3 1 5 4 3 2 2 2 3 6 6 4 10 12 14 14 16 16
12 5 1 7 7 2 5 2 2 0 1 1 0 2 3 4 4 4 2 3 2 3 3 3 5 2 6 3 4 4 2 3 3 4 5 4 3 5 18 18 14 15 15 14 14
5 3 2 9 3 4 3 4 2 2 2 0 2 2 1 2 2 1 3 3 2 1 2 3 4 6 3 2 1 4 4 3 1 1 1 3 5 3 8 7 11 11 12 13 13
3 2 2 5 3 2 2 4 2 3 2 1 1 2 2 2 0 2 3 5 4 3 2 2 4 5 6 7 5 2 3 3 3 6 2 1 5 4 4 4 6 8 9 10 12
1 2 2 2 1 1 2 2 3 4 3 4 4 4 2 4 1 3 2 1 6 3 4 2 1 4 8 6 4 5 2 3 2 1 4 1 4 4 5 3 3 5 7 8 10
2 2 3 4 0 5 4 4 4 3 4 4 4 3 2 3 5 2 2 3 5 3 5 3 3 6 6 6 2 4 2 2 1 2 2 5 7 6 9 8 5 6 7 7 7
3 2 2 2 3 2 3 1 1 3 3 4 2 5 5 2 1 4 4 2 2 3 2 3 2 3 7 14 13 13 11 5 6 6 4 4 4 9 7 5 4 3 6 7 8
3 2 2 1 1 3 1 4 6 2 6 4 4 4 6 5 7 7 5 4 5 3 2 3 2 4 5 4 3 7 11 7 5 5 8 10 13 5 3 4 4 2 4 6 6
2 3 4 1 2 3 4 6 6 5 3 4 6 3 5 11 5 4 4 3 5 7 5 4 2 3 5 5 7 4 5 4 3 5 5 5 5 3 3 5 4 1 4 3 5